Home > Time Zones > World Clock > Weather > Togo > Lome > Past weeks

Flag for Togo Weather past 2 weeks in Lome, Togo

Now
84 °F

Thunderstorms. Passing clouds.


Feels Like: 96 °F
Forecast: N/A
Wind: 10 mph from Southwest

Location: Lome Airport

Current Time: Mar 27, 2015 at 7:51:35 PM

Latest Report: Mar 27, 2015 at 7:00 PM


Visibility: N/A

Pressure: 29.92 "Hg

Humidity: 84%

Dew point: 79 °F

Location of LomeLocation

Historic Weather in Lome — Graph

°F

Lome temperature yesterday

Maximum temperature yesterday: 90 °F (at 12:00 PM)
Minimum temperature yesterday: 77 °F (at 3:00 AM)
Average temperature yesterday: 83 °F

Past Weeks' High & Low Weather Summary

 TemperatureHumidityPressure
High93 °F (Mar 15, 12:00 PM)100% (Mar 21, 10:00 PM)29.98 "Hg (Mar 21, 10:00 PM)
Low72 °F (Mar 25, 8:00 AM)49% (Mar 18, 11:00 AM)29.68 "Hg (Mar 15, 3:00 PM)
Average84 °F80%29.81 "Hg
* Reported Mar 12 6:00 PM — Mar 27 6:00 PM, Lome, Weather by CustomWeather, © 2015

Note: Actual official high and low records may vary slightly from our data, if they occured in-between our weather recording intervals... More about our weather records

Advertising

Lome weather history for previous 24 hours

 ConditionsComfort  
Time TempWeatherWind HumidityBarometerVisibility
6:00 PM
Fri, Mar 27
84 °FPassing clouds.15 mph84%29.89 "HgN/A
5:00 PM86 °FPassing clouds.16 mph79%29.86 "HgN/A
4:00 PM88 °FPassing clouds.17 mph75%29.83 "HgN/A
3:00 PM88 °FPassing clouds.17 mph75%29.86 "HgN/A
2:00 PM88 °FPassing clouds.16 mph75%29.86 "HgN/A
1:00 PM88 °FPassing clouds.14 mph75%29.89 "HgN/A
12:00 PM88 °FPassing clouds.14 mph70%29.92 "HgN/A
11:00 AM90 °FPassing clouds.12 mph71%29.95 "HgN/A
10:00 AM88 °FPassing clouds.9 mph70%29.98 "HgN/A
9:00 AM84 °FPassing clouds.9 mph84%29.98 "HgN/A
8:00 AM82 °FPassing clouds.8 mph89%29.95 "HgN/A
7:00 AM81 °FPassing clouds.7 mph94%29.92 "Hg5 mi
6:00 AM81 °FPassing clouds.5 mph94%29.92 "Hg5 mi
5:00 AM81 °FPassing clouds.3 mph94%29.92 "HgN/A
4:00 AM81 °FPassing clouds.3 mph94%29.92 "HgN/A
3:00 AM81 °FPassing clouds.5 mph94%29.89 "HgN/A
2:00 AM81 °FPassing clouds.6 mph94%29.89 "HgN/A
1:00 AM82 °FPassing clouds.6 mph89%29.89 "HgN/A
12:00 AM82 °FPassing clouds.7 mph89%29.92 "HgN/A
11:00 PM
Thu, Mar 26
82 °FPassing clouds.9 mph89%29.95 "HgN/A
10:00 PM82 °FPassing clouds.7 mph89%29.92 "HgN/A
9:00 PM84 °FPassing clouds.8 mph84%29.89 "HgN/A
8:00 PM84 °FPassing clouds.8 mph79%29.89 "HgN/A
7:00 PM84 °FPassing clouds.10 mph79%29.86 "HgN/A
Weather by CustomWeather, © 2015

See weather overviewHow to use our weather pages